When you browse on this site, cookies collect data to enhance your experience and personalize the content and advertising you see.
Visit our Privacy Policy to learn more. By continuing to use the site, you agree to this use of cookies and data.
  • In Latvia
  • List of Countries
  • For 7 days
  • Water Temperature
  • Satellite Maps
  • Weather Map
  • Weather Widgets
  • user-avatar
    Login

    Hourly Weather Fundul Galbenei

    Today, 24 March, Sunday

    Time Temperature Precipitation Wind Pressure Humidity
    00:00 +6°C° 0 mm 1 mps 751 mmHg 58%
    01:00 +5°C° 0 mm 1 mps 751 mmHg 59%
    02:00 +5°C° 0 mm 1 mps 751 mmHg 61%
    03:00 +5°C° 0 mm 1 mps 751 mmHg 62%
    04:00 +4°C° 0 mm 1 mps 750 mmHg 62%
    05:00 +4°C° 0 mm 1 mps 750 mmHg 63%
    06:00 +5°C° 0 mm 1 mps 750 mmHg 60%
    07:00 +6°C° 0 mm 1 mps 750 mmHg 56%
    08:00 +7°C° 0 mm 1 mps 750 mmHg 53%
    09:00 +8°C° 0 mm 1 mps 749 mmHg 46%
    10:00 +9°C° 0 mm 2 mps 749 mmHg 39%
    11:00 +12°C° 0 mm 2 mps 749 mmHg 32%
    12:00 +12°C° 0 mm 3 mps 749 mmHg 30%
    13:00 +13°C° 0 mm 3 mps 748 mmHg 27%
    14:00 +14°C° 0 mm 3 mps 748 mmHg 24%
    15:00 +14°C° 0 mm 3 mps 747 mmHg 25%
    16:00 +14°C° 0 mm 3 mps 747 mmHg 26%
    17:00 +14°C° 0 mm 3 mps 747 mmHg 27%
    18:00 +15°C° 0 mm 2 mps 747 mmHg 32%
    19:00 +14°C° 0 mm 2 mps 747 mmHg 37%
    20:00 +13°C° 0 mm 2 mps 747 mmHg 43%
    21:00 +12°C° 0 mm 2 mps 747 mmHg 51%
    22:00 +11°C° 0 mm 1 mps 746 mmHg 59%
    23:00 +10°C° 0 mm 1 mps 746 mmHg 67%

    Tomorrow, 25 March, Monday

    Time Temperature Precipitation Wind Pressure Humidity
    00:00 +10°C° 0 mm 1 mps 746 mmHg 70%
    01:00 +9°C° 0 mm 1 mps 746 mmHg 72%
    02:00 +9°C° 0 mm 1 mps 746 mmHg 75%
    03:00 +8°C° 0 mm 0 mps 745 mmHg 76%
    04:00 +7°C° 0 mm 0 mps 744 mmHg 77%
    05:00 +7°C° 0 mm 0 mps 744 mmHg 78%
    06:00 +9°C° 0 mm 1 mps 743 mmHg 74%
    07:00 +9°C° 0 mm 2 mps 743 mmHg 70%
    08:00 +9°C° 0 mm 3 mps 743 mmHg 66%
    09:00 +11°C° 0 mm 4 mps 742 mmHg 61%
    10:00 +13°C° 0 mm 5 mps 742 mmHg 56%
    11:00 +15°C° 0 mm 6 mps 741 mmHg 51%
    12:00 +15°C° 0 mm 5 mps 741 mmHg 50%
    13:00 +17°C° 0 mm 4 mps 740 mmHg 48%
    14:00 +17°C° 0 mm 4 mps 740 mmHg 46%
    15:00 +17°C° 0 mm 3 mps 740 mmHg 47%
    16:00 +17°C° 0 mm 3 mps 739 mmHg 48%
    17:00 +17°C° 0 mm 2 mps 739 mmHg 49%
    18:00 +14°C° 0 mm 3 mps 739 mmHg 56%
    19:00 +13°C° 0 mm 3 mps 740 mmHg 63%
    20:00 +11°C° 0 mm 3 mps 740 mmHg 71%
    21:00 +10°C° 0 mm 3 mps 740 mmHg 73%
    22:00 +9°C° 0 mm 3 mps 741 mmHg 76%
    23:00 +9°C° 0 mm 3 mps 741 mmHg 78%

    Day after tomorrow, 26 March, Tuesday

    Time Temperature Precipitation Wind Pressure Humidity
    00:00 +8°C° 0.2 mm 3 mps 741 mmHg 79%
    01:00 +8°C° 0.2 mm 3 mps 742 mmHg 81%
    02:00 +7°C° 0.2 mm 3 mps 742 mmHg 82%
    03:00 +7°C° 0.8 mm 3 mps 742 mmHg 83%
    04:00 +7°C° 0.8 mm 3 mps 742 mmHg 84%
    05:00 +7°C° 0.8 mm 3 mps 742 mmHg 85%
    06:00 +7°C° 0.3 mm 3 mps 743 mmHg 80%
    07:00 +6°C° 0.3 mm 4 mps 744 mmHg 75%
    08:00 +6°C° 0.3 mm 5 mps 744 mmHg 70%
    09:00 +7°C° 0 mm 5 mps 745 mmHg 66%
    10:00 +8°C° 0 mm 5 mps 745 mmHg 62%
    11:00 +9°C° 0 mm 5 mps 746 mmHg 58%
    12:00 +9°C° 0 mm 6 mps 746 mmHg 56%
    13:00 +9°C° 0 mm 6 mps 746 mmHg 54%
    14:00 +9°C° 0 mm 6 mps 746 mmHg 53%
    15:00 +9°C° 0 mm 6 mps 746 mmHg 50%
    16:00 +9°C° 0 mm 6 mps 746 mmHg 47%
    17:00 +10°C° 0 mm 6 mps 746 mmHg 44%
    18:00 +8°C° 0 mm 5 mps 747 mmHg 48%
    19:00 +7°C° 0 mm 4 mps 748 mmHg 51%
    20:00 +6°C° 0 mm 4 mps 748 mmHg 54%
    21:00 +6°C° 0 mm 4 mps 749 mmHg 56%
    22:00 +5°C° 0 mm 4 mps 749 mmHg 58%
    23:00 +5°C° 0 mm 4 mps 749 mmHg 60%

    27 March, Wednesday

    Time Temperature Precipitation Wind Pressure Humidity
    00:00 +4°C° 0 mm 4 mps 749 mmHg 61%
    01:00 +3°C° 0 mm 3 mps 750 mmHg 62%
    02:00 +2°C° 0 mm 3 mps 750 mmHg 64%
    03:00 +2°C° 0 mm 3 mps 750 mmHg 67%
    04:00 +2°C° 0 mm 3 mps 750 mmHg 70%
    05:00 +1°C° 0 mm 3 mps 750 mmHg 73%
    06:00 +1°C° 0 mm 4 mps 751 mmHg 69%
    07:00 +2°C° 0 mm 5 mps 751 mmHg 64%
    08:00 +3°C° 0 mm 5 mps 751 mmHg 60%
    09:00 +5°C° 0 mm 5 mps 752 mmHg 56%
    10:00 +6°C° 0 mm 5 mps 752 mmHg 52%
    11:00 +7°C° 0 mm 5 mps 752 mmHg 48%
    12:00 +7°C° 0 mm 5 mps 752 mmHg 45%
    13:00 +7°C° 0 mm 6 mps 753 mmHg 41%
    14:00 +8°C° 0 mm 6 mps 753 mmHg 38%
    15:00 +7°C° 0 mm 5 mps 753 mmHg 35%
    16:00 +7°C° 0 mm 5 mps 753 mmHg 33%
    17:00 +7°C° 0 mm 4 mps 753 mmHg 30%
    18:00 +6°C° 0 mm 4 mps 754 mmHg 32%
    19:00 +5°C° 0 mm 3 mps 754 mmHg 34%
    20:00 +5°C° 0 mm 2 mps 754 mmHg 36%
    21:00 +5°C° 0 mm 1 mps 755 mmHg 36%
    22:00 +5°C° 0 mm 1 mps 755 mmHg 37%
    23:00 +4°C° 0 mm 1 mps 755 mmHg 38%

    28 March, Thursday

    Time Temperature Precipitation Wind Pressure Humidity
    00:00 +4°C° 0 mm 1 mps 755 mmHg 38%
    01:00 +3°C° 0 mm 0 mps 755 mmHg 39%
    02:00 +2°C° 0 mm 0 mps 756 mmHg 40%
    03:00 +2°C° 0 mm 0 mps 756 mmHg 41%
    04:00 +2°C° 0 mm 0 mps 756 mmHg 42%
    05:00 +1°C° 0 mm 0 mps 756 mmHg 43%
    06:00 +2°C° 0 mm 0 mps 756 mmHg 41%
    07:00 +3°C° 0 mm 0 mps 756 mmHg 39%
    08:00 +4°C° 0 mm 0 mps 757 mmHg 37%
    09:00 +6°C° 0 mm 0 mps 757 mmHg 34%
    10:00 +7°C° 0 mm 0 mps 757 mmHg 30%
    11:00 +8°C° 0 mm 0 mps 757 mmHg 27%
    12:00 +9°C° 0 mm 0 mps 756 mmHg 26%
    13:00 +9°C° 0 mm 0 mps 756 mmHg 25%
    14:00 +11°C° 0 mm 1 mps 756 mmHg 24%
    15:00 +11°C° 0 mm 1 mps 756 mmHg 25%
    16:00 +11°C° 0 mm 1 mps 755 mmHg 25%
    17:00 +11°C° 0 mm 1 mps 755 mmHg 25%
    18:00 +10°C° 0 mm 1 mps 755 mmHg 28%
    19:00 +9°C° 0 mm 1 mps 756 mmHg 32%
    20:00 +8°C° 0 mm 1 mps 756 mmHg 35%
    21:00 +8°C° 0 mm 1 mps 756 mmHg 36%
    22:00 +6°C° 0 mm 0 mps 756 mmHg 37%
    23:00 +6°C° 0 mm 0 mps 756 mmHg 39%

    29 March, Friday

    Time Temperature Precipitation Wind Pressure Humidity
    00:00 +5°C° 0 mm 0 mps 756 mmHg 40%
    01:00 +5°C° 0 mm 0 mps 756 mmHg 41%
    02:00 +5°C° 0 mm 1 mps 756 mmHg 43%
    03:00 +5°C° 0 mm 1 mps 756 mmHg 43%
    04:00 +5°C° 0 mm 1 mps 755 mmHg 44%
    05:00 +5°C° 0 mm 1 mps 755 mmHg 45%
    06:00 +6°C° 0 mm 1 mps 755 mmHg 43%
    07:00 +7°C° 0 mm 1 mps 756 mmHg 41%
    08:00 +7°C° 0 mm 2 mps 756 mmHg 39%
    09:00 +8°C° 0 mm 2 mps 756 mmHg 38%
    10:00 +10°C° 0 mm 3 mps 756 mmHg 37%
    11:00 +12°C° 0 mm 4 mps 755 mmHg 36%
    12:00 +12°C° 0 mm 4 mps 755 mmHg 37%
    13:00 +13°C° 0 mm 4 mps 755 mmHg 37%
    14:00 +14°C° 0 mm 4 mps 754 mmHg 37%
    15:00 +14°C° 0 mm 5 mps 754 mmHg 39%
    16:00 +13°C° 0 mm 5 mps 754 mmHg 41%
    17:00 +13°C° 0 mm 5 mps 753 mmHg 43%
    18:00 +12°C° 0 mm 4 mps 753 mmHg 49%
    19:00 +11°C° 0 mm 3 mps 753 mmHg 55%
    20:00 +9°C° 0 mm 3 mps 753 mmHg 60%
    21:00 +9°C° 0 mm 3 mps 754 mmHg 62%
    22:00 +9°C° 0 mm 3 mps 754 mmHg 64%
    23:00 +8°C° 0 mm 3 mps 754 mmHg 66%
    Show more